When you browse on this site, cookies collect data to enhance your experience and personalize the content and advertising you see.
Visit our Privacy Policy to learn more. By continuing to use the site, you agree to this use of cookies and data.
  • In Latvia
  • List of Countries
  • For 7 days
  • Water Temperature
  • Weather Map
  • Weather Widgets
  • user-avatar
    Login

    Hourly Weather Novopersianovka

    Today, 14 December, Saturday

    Time Temperature Precipitation Wind Pressure Humidity
    00:00 -1°C° 0 mm 7 mps 754 mmHg 80%
    01:00 -1°C° 0 mm 7 mps 754 mmHg 80%
    02:00 -1°C° 0 mm 7 mps 754 mmHg 81%
    03:00 -1°C° 0 mm 6 mps 754 mmHg 78%
    04:00 -1°C° 0.2 mm 6 mps 753 mmHg 81%
    05:00 -1°C° 0.2 mm 6 mps 753 mmHg 83%
    06:00 -1°C° 0.2 mm 7 mps 753 mmHg 86%
    07:00 -1°C° 0.5 mm 6 mps 753 mmHg 88%
    08:00 -1°C° 0.5 mm 6 mps 753 mmHg 90%
    09:00 +1°C° 0 mm 6 mps 753 mmHg 92%
    10:00 +1°C° 0.3 mm 6 mps 753 mmHg 91%
    11:00 +2°C° 0.3 mm 6 mps 753 mmHg 90%
    12:00 +3°C° 0.3 mm 7 mps 753 mmHg 89%
    13:00 +3°C° 0 mm 6 mps 753 mmHg 87%
    14:00 +4°C° 0 mm 6 mps 753 mmHg 84%
    15:00 +5°C° 0 mm 4 mps 753 mmHg 81%
    16:00 +5°C° 0 mm 5 mps 753 mmHg 84%
    17:00 +5°C° 0 mm 5 mps 753 mmHg 86%
    18:00 +5°C° 0 mm 5 mps 753 mmHg 89%
    19:00 +5°C° 0.2 mm 5 mps 753 mmHg 90%
    20:00 +5°C° 0.2 mm 5 mps 753 mmHg 92%
    21:00 +5°C° 0.2 mm 5 mps 754 mmHg 93%
    22:00 +5°C° 1.3 mm 4 mps 754 mmHg 94%
    23:00 +5°C° 1.3 mm 4 mps 754 mmHg 95%

    Tomorrow, 15 December, Sunday

    Time Temperature Precipitation Wind Pressure Humidity
    00:00 +5°C° 1.3 mm 4 mps 754 mmHg 96%
    01:00 +5°C° 1.5 mm 4 mps 754 mmHg 96%
    02:00 +5°C° 1.5 mm 5 mps 754 mmHg 96%
    03:00 +4°C° 1.5 mm 6 mps 754 mmHg 95%
    04:00 +4°C° 0.1 mm 6 mps 754 mmHg 95%
    05:00 +5°C° 0.1 mm 5 mps 753 mmHg 94%
    06:00 +5°C° 0.1 mm 5 mps 753 mmHg 94%
    07:00 +5°C° 0.1 mm 5 mps 753 mmHg 93%
    08:00 +5°C° 0.1 mm 5 mps 754 mmHg 93%
    09:00 +5°C° 0.1 mm 5 mps 754 mmHg 93%
    10:00 +6°C° 0 mm 5 mps 754 mmHg 91%
    11:00 +6°C° 0 mm 5 mps 754 mmHg 90%
    12:00 +6°C° 0 mm 4 mps 754 mmHg 88%
    13:00 +7°C° 0 mm 4 mps 754 mmHg 87%
    14:00 +7°C° 0 mm 4 mps 754 mmHg 86%
    15:00 +7°C° 0 mm 4 mps 754 mmHg 85%
    16:00 +7°C° 0 mm 4 mps 754 mmHg 86%
    17:00 +6°C° 0 mm 4 mps 754 mmHg 88%
    18:00 +6°C° 0 mm 4 mps 754 mmHg 89%
    19:00 +6°C° 0 mm 4 mps 754 mmHg 89%
    20:00 +7°C° 0 mm 3 mps 754 mmHg 88%
    21:00 +7°C° 0 mm 3 mps 754 mmHg 87%
    22:00 +7°C° 0.4 mm 3 mps 755 mmHg 90%
    23:00 +7°C° 0.4 mm 3 mps 755 mmHg 93%

    Day after tomorrow, 16 December, Monday

    Time Temperature Precipitation Wind Pressure Humidity
    00:00 +7°C° 0.4 mm 3 mps 755 mmHg 96%
    01:00 +7°C° 0.1 mm 3 mps 756 mmHg 95%
    02:00 +5°C° 0.1 mm 3 mps 756 mmHg 94%
    03:00 +5°C° 0.1 mm 4 mps 756 mmHg 93%
    04:00 +4°C° 0 mm 4 mps 757 mmHg 91%
    05:00 +4°C° 0 mm 4 mps 758 mmHg 88%
    06:00 +3°C° 0 mm 4 mps 758 mmHg 86%
    07:00 +3°C° 0 mm 3 mps 759 mmHg 85%
    08:00 +2°C° 0 mm 3 mps 760 mmHg 85%
    09:00 +2°C° 0 mm 3 mps 760 mmHg 84%
    10:00 +3°C° 0 mm 3 mps 761 mmHg 81%
    11:00 +4°C° 0 mm 3 mps 761 mmHg 77%
    12:00 +4°C° 0 mm 4 mps 761 mmHg 73%
    13:00 +5°C° 0 mm 4 mps 761 mmHg 71%
    14:00 +5°C° 0 mm 4 mps 761 mmHg 69%
    15:00 +6°C° 0 mm 4 mps 761 mmHg 67%
    16:00 +5°C° 0 mm 4 mps 761 mmHg 71%
    17:00 +4°C° 0 mm 4 mps 761 mmHg 74%
    18:00 +3°C° 0 mm 4 mps 761 mmHg 78%
    19:00 +3°C° 0 mm 4 mps 761 mmHg 79%
    20:00 +3°C° 0 mm 4 mps 761 mmHg 80%
    21:00 +3°C° 0 mm 4 mps 762 mmHg 81%
    22:00 +3°C° 0 mm 4 mps 762 mmHg 83%
    23:00 +3°C° 0 mm 4 mps 762 mmHg 85%

    17 December, Tuesday

    Time Temperature Precipitation Wind Pressure Humidity
    00:00 +3°C° 0 mm 4 mps 762 mmHg 86%
    01:00 +3°C° 0 mm 4 mps 762 mmHg 86%
    02:00 +3°C° 0 mm 4 mps 762 mmHg 86%
    03:00 +3°C° 0 mm 4 mps 762 mmHg 85%
    04:00 +3°C° 0 mm 3 mps 762 mmHg 86%
    05:00 +3°C° 0 mm 3 mps 762 mmHg 87%
    06:00 +4°C° 0 mm 2 mps 762 mmHg 88%
    07:00 +4°C° 0 mm 2 mps 762 mmHg 89%
    08:00 +4°C° 0 mm 2 mps 762 mmHg 90%
    09:00 +4°C° 0 mm 2 mps 763 mmHg 91%
    10:00 +5°C° 0 mm 2 mps 763 mmHg 88%
    11:00 +5°C° 0 mm 3 mps 763 mmHg 84%
    12:00 +7°C° 0 mm 3 mps 763 mmHg 81%
    13:00 +8°C° 0 mm 3 mps 762 mmHg 80%
    14:00 +8°C° 0 mm 3 mps 762 mmHg 78%
    15:00 +8°C° 0 mm 3 mps 762 mmHg 77%
    16:00 +7°C° 0 mm 3 mps 762 mmHg 80%
    17:00 +7°C° 0 mm 2 mps 762 mmHg 84%
    18:00 +6°C° 0 mm 2 mps 762 mmHg 87%
    19:00 +5°C° 0 mm 2 mps 762 mmHg 87%
    20:00 +5°C° 0 mm 2 mps 762 mmHg 87%
    21:00 +5°C° 0 mm 2 mps 762 mmHg 86%
    22:00 +5°C° 0 mm 2 mps 762 mmHg 85%
    23:00 +4°C° 0 mm 2 mps 762 mmHg 84%

    18 December, Wednesday

    Time Temperature Precipitation Wind Pressure Humidity
    00:00 +3°C° 0 mm 3 mps 762 mmHg 83%
    01:00 +3°C° 0 mm 3 mps 762 mmHg 85%
    02:00 +3°C° 0 mm 3 mps 762 mmHg 87%
    03:00 +3°C° 0 mm 3 mps 762 mmHg 88%
    04:00 +3°C° 0 mm 3 mps 761 mmHg 90%
    05:00 +3°C° 0 mm 3 mps 761 mmHg 92%
    06:00 +3°C° 0 mm 3 mps 761 mmHg 94%
    07:00 +3°C° 0 mm 3 mps 761 mmHg 95%
    08:00 +3°C° 0 mm 3 mps 761 mmHg 95%
    09:00 +3°C° 0 mm 4 mps 761 mmHg 96%
    10:00 +5°C° 0 mm 4 mps 761 mmHg 93%
    11:00 +6°C° 0 mm 5 mps 761 mmHg 89%
    12:00 +7°C° 0 mm 6 mps 761 mmHg 86%
    13:00 +7°C° 0 mm 6 mps 760 mmHg 85%
    14:00 +8°C° 0 mm 6 mps 760 mmHg 83%
    15:00 +8°C° 0 mm 6 mps 760 mmHg 81%
    16:00 +8°C° 0 mm 5 mps 759 mmHg 83%
    17:00 +7°C° 0 mm 5 mps 759 mmHg 86%
    18:00 +6°C° 0 mm 5 mps 759 mmHg 88%
    19:00 +6°C° 0 mm 5 mps 759 mmHg 89%
    20:00 +6°C° 0 mm 5 mps 759 mmHg 89%
    21:00 +5°C° 0 mm 6 mps 759 mmHg 89%
    22:00 +5°C° 0 mm 6 mps 759 mmHg 89%
    23:00 +5°C° 0 mm 6 mps 759 mmHg 88%

    19 December, Thursday

    Time Temperature Precipitation Wind Pressure Humidity
    00:00 +5°C° 0 mm 6 mps 759 mmHg 87%
    01:00 +5°C° 0 mm 5 mps 759 mmHg 87%
    02:00 +5°C° 0 mm 5 mps 759 mmHg 87%
    03:00 +5°C° 0 mm 5 mps 758 mmHg 86%
    04:00 +5°C° 0 mm 5 mps 758 mmHg 87%
    05:00 +5°C° 0 mm 5 mps 758 mmHg 87%
    06:00 +4°C° 0 mm 4 mps 758 mmHg 88%
    07:00 +5°C° 0 mm 5 mps 758 mmHg 87%
    08:00 +5°C° 0 mm 5 mps 758 mmHg 86%
    09:00 +5°C° 0 mm 5 mps 758 mmHg 86%
    10:00 +5°C° 0 mm 6 mps 758 mmHg 80%
    11:00 +7°C° 0 mm 6 mps 757 mmHg 74%
    12:00 +9°C° 0 mm 7 mps 757 mmHg 68%
    13:00 +9°C° 0 mm 7 mps 757 mmHg 68%
    14:00 +9°C° 0 mm 7 mps 757 mmHg 67%
    15:00 +9°C° 0 mm 7 mps 756 mmHg 67%
    16:00 +9°C° 0 mm 6 mps 756 mmHg 69%
    17:00 +8°C° 0 mm 6 mps 756 mmHg 71%
    18:00 +7°C° 0 mm 5 mps 756 mmHg 74%
    19:00 +7°C° 0 mm 5 mps 755 mmHg 76%
    20:00 +6°C° 0 mm 5 mps 755 mmHg 78%
    21:00 +6°C° 0 mm 4 mps 755 mmHg 80%
    22:00 +5°C° 0 mm 4 mps 755 mmHg 82%
    23:00 +5°C° 0 mm 3 mps 755 mmHg 84%
    Show more